Regional Weather Roundup
Issued by NWS

Home | Current Version | Previous Version | Graphics & Text | Print | Product List | Glossary On
Versions: 1 2 3 4 5 6 7 8 9 10 11 12 13 14 15 16 17 18 19 20 21 22 23 24 25 26 27 28 29 30 31 32 33 34 35 36 37 38 39 40 41 42 43 44 45 46 47 48 49 50
000
ASUS43 KDMX 231306
RWRIA

WEATHER ROUNDUP FOR IOWA
NATIONAL WEATHER SERVICE DES MOINES IA
800 AM CDT THU MAR 23 2017

NOTE: "FAIR" INDICATES FEW OR NO CLOUDS BELOW 12,000 FEET WITH NO
SIGNIFICANT WEATHER AND/OR OBSTRUCTIONS TO VISIBILITY.

* - THESE STATIONS ARE NOT NWS STATIONS...THUS NOT UNDER NWS
QUALITY CONTROL.  THEY ALSO DO NOT REPORT WEATHER SUCH
AS PRECIPITATION OR FOG.

IAZ001>003-012>014-020>022-031>034-043>046-231400-
   NORTHWEST IOWA

CITY           SKY/WX    TMP DP  RH WIND       PRES   REMARKS
CARROLL *      CLOUDY    41  23  48 SE15      30.05S
CHEROKEE *     CLOUDY    38  22  52 SE9       30.01S WCI  32
DENISON *      CLOUDY    43  25  49 SE13G18   29.99F
LE MARS *      PTCLDY    41  23  48 SE12      29.97F
ORANGE CITY *  PTCLDY    39  25  56 SE8       29.97F WCI  34
SHELDON *      CLOUDY    39  27  60 SE18      29.97F WCI  30
SIOUX CITY     MOCLDY    39  25  57 SE14      29.96F WCI  31
SPENCER        CLOUDY    38  21  50 SE18G24   30.02F WCI  28
STORM LAKE *   PTCLDY    37  19  48 SE18      30.01F WCI  27
$$

IAZ055>058-069>071-079>083-090>094-231400-
   SOUTHWEST IOWA

CITY           SKY/WX    TMP DP  RH WIND       PRES   REMARKS
ATLANTIC *     CLOUDY    45  25  45 SE13      30.04F
AUDUBON *      CLOUDY    43  27  52 SE10      30.05F
CLARINDA *     CLOUDY    46  32  57 S10G18    30.07F
COUNCIL BLFS * CLOUDY    45  27  49 SE17      30.00F
CRESTON *      CLOUDY    43  25  49 SE16G24   30.08F
HARLAN  *      CLOUDY    45  25  45 SE13G20   30.05F
LAMONI         CLOUDY    44  29  55 SE16      30.10S
RED OAK *      CLOUDY    46  28  49 SE9G17    30.03F
SHENANDOAH *   CLOUDY    46  32  57 SE12G21   30.03F
$$

IAZ047>049-059>061-072>074-084-231400-
   CENTRAL IOWA

CITY           SKY/WX    TMP DP  RH WIND       PRES   REMARKS
AMES           CLOUDY    38  23  55 SE14G24   30.13F WCI  30
ANKENY *       CLOUDY    41  21  45 SE14G20   30.14S
BOONE *        CLOUDY    39  21  48 SE22      30.10S WCI  29
CHARITON *     CLOUDY    41  32  70 SE15G22   30.12S
DES MOINES     CLOUDY    42  20  41 SE15      30.13S
GRINNELL*      CLOUDY    37  23  56 SE14G22   30.18F WCI  28
MARSHALLTOWN   CLOUDY    37  22  54 SE16      30.16F WCI  28
NEWTON *       CLOUDY    37  21  52 SE18G24   30.15S WCI  27
PELLA *        CLOUDY    39  24  55 SE8       30.17F WCI  33
PERRY *        CLOUDY    40  17  39 SE16G22   30.09F WCI  32
$$

IAZ004>006-015-016-023>025-035-036-231400-
   NORTH CENTRAL IOWA

CITY           SKY/WX    TMP DP  RH WIND       PRES   REMARKS
ALGONA *       CLOUDY    36  25  64 SE21G30   30.07S WCI  24
CLARION *      CLOUDY    36  25  64 SE20G28   30.10F WCI  25
ESTHERVILLE    CLOUDY    35  24  64 SE21      30.04F WCI  24
FORT DODGE *   CLOUDY    37  19  48 SE13      30.09S WCI  29
MASON CITY     CLOUDY    34  23  64 SE20G25   30.14F WCI  23
FOREST CITY *  CLOUDY    34  27  75 SE18      30.10F WCI  23
WEBSTER CITY * CLOUDY    37  21  52 SE21      30.08F WCI  27
IOWA FALLS *   CLOUDY    37  24  58 SE16G24   30.15F WCI  28
$$

IAZ007>011-017>019-026>030-037>042-050>054-066-231400-
   NORTHEAST IOWA

CITY           SKY/WX    TMP DP  RH WIND       PRES   REMARKS
CEDAR RAPIDS   CLOUDY    36  23  59 SE14      30.22F WCI  27
CHARLES CITY * CLOUDY    34  21  60 SE17G24   30.18F WCI  23
CLINTON *      CLOUDY    34  25  69 SE15      30.32S WCI  24
DECORAH *      CLOUDY    34  21  60 SE14      30.20F WCI  24
DUBUQUE        CLOUDY    33  22  63 SE14      30.28F WCI  23
MONTICELLO *   CLOUDY    34  23  64 SE13      30.27F WCI  25
OELWEIN *      CLOUDY    34  23  64 SE20G26   30.21F WCI  22
WATERLOO       CLOUDY    35  22  58 SE13      30.19F WCI  26
$$

IAZ064-065-067-068-078-231400-
   EAST CENTRAL IOWA

CITY           SKY/WX    TMP DP  RH WIND       PRES   REMARKS
DAVENPORT      CLOUDY    35  23  61 SE13      30.30F WCI  26
IOWA CITY      CLOUDY    38  23  55 SE13G20   30.26F WCI  30
MUSCATINE *    CLOUDY    39  23  52 SE13      30.28F WCI  32
QUAD CITIES    CLOUDY    36  23  59 SE10      30.31S WCI  28
$$

IAZ062-063-075>077-085>089-095>099-231400-
   SOUTHEAST IOWA

CITY           SKY/WX    TMP DP  RH WIND       PRES   REMARKS
BURLINGTON     LGT RAIN  37  25  61 SE15      30.26F WCI  28
FAIRFIELD *    CLOUDY    39  21  48 SE16      30.21S WCI  30
FORT MADISON * CLOUDY    37  27  65 SE13      30.26F WCI  29
KEOKUK *       CLOUDY    37  27  65 SE15G21   30.24F WCI  28
OSKALOOSA *    CLOUDY    38  23  55 SE13      30.19S WCI  30
CENTERVILLE *  CLOUDY    39  25  56 SE12      30.17S WCI  32
OTTUMWA        CLOUDY    40  20  44 SE15      30.19S WCI  32
WASHINGTON *   CLOUDY    37  23  56 SE16      30.25S WCI  28
$$

ABBREVIATIONS USED IN REMARKS
   TC - TEMPERATURES IN CELSIUS
  WCI - WIND CHILL INDEX
   HX - HEAT INDEX
  VSB - VISIBILITY
$$





USA.gov is the U.S. government's official web portal to all federal, state and local government web resources and services.